Вернуться в каталог

KITSAT B

АктивенЛюбительское радиоSSO
NORAD 22828·PAYLOAD·🇰🇷 South Korea

Запущен Sep 26, 1993 с Guiana Space Centre

Loading…

Ближайшие Пролёты (ближайшие 24 часа)

TLE

СвежийSource: Space-Track

Эпоха: Sep 14, 2026, 11:21 UTC

1 22828U 93061F   26257.47358605  .00000078  00000-0  45810-4 0  9998
2 22828  98.6772 324.8562 0010555 139.5693 220.6276 14.31819452688583

Отслеживайте KITSAT B в реальном времени с AllMySat

Download on the App Store